Location: Holiday Acres Laynes 2 Mobile Home Park
(26.7249°N, 81.8671°W)
Time: 07:37:55
(UTC+00:00)

Cosmos 1470 Rocket - Pass Details

Date: 25 November 2020
Orbit: 604 x 633 km, 82.5° (Epoch: 21 January)

Event Time Altitude Azimuth Distance (km) Brightness Sun altitude
Rises 23:35:26 0° 8° (N) 2,859 6.7 -13.7°
Reaches altitude 10° 23:37:52 10° 19° (NNE) 1,951 5.8 -14.2°
Maximum altitude 23:41:40 30° 81° (E) 1,081 4.2 -15.0°
Drops below altitude 10° 23:45:28 10° 143° (SE) 1,943 5.9 -15.8°
Sets 23:47:53 0° 154° (SSE) 2,845 6.9 -16.3°
